Regional Weather Roundup
Issued by NWS

Home | Current Version | Previous Version | Graphics & Text | Print | Product List | Glossary On
Versions: 1 2 3 4 5 6 7 8 9 10 11 12 13 14 15 16 17 18 19 20 21 22 23 24 25 26 27
000
ASUS45 KTFX 241610
RWRMT
MONTANA REGIONAL WEATHER ROUNDUP
NATIONAL WEATHER SERVICE GREAT FALLS MT
900 AM MST TUE JAN 24 2017

NOTE: "FAIR" INDICATES FEW OR NO CLOUDS BELOW 12000 FEET WITH NO
SIGNIFICANT WEATHER AND/OR OBSTRUCTIONS TO VISIBILITY.

MTZ001>007-043-241700-
WEST OF THE DIVIDE

CITY           SKY/WX    TMP DP  RH WIND       PRES   REMARKS
KALISPELL      MOCLDY     1  -3  83 CALM      29.96R
MISSOULA       CLOUDY    18  13  80 CALM      29.96R
BUTTE          CLOUDY    -1  -4  87 SE3       29.82R
MULLAN PASS    FOG       20  16  84 NW3       29.79S VSB 1/2
ANACONDA         N/A     10   3  72 CALM      29.87R
DEER LODGE       N/A      3   0  85 W3        29.91R
EUREKA           N/A     18  16  93 CALM      29.98R
HAMILTON         N/A     14  10  85 N5          N/A
PLAINS           N/A     24  18  78 CALM      29.97R
RONAN            N/A     21  18  88 CALM      29.97R VSB 0
$$

MTZ008-052>055-241700-
SOUTHWEST MONTANA

CITY           SKY/WX    TMP DP  RH WIND       PRES   REMARKS
BOZEMAN        CLOUDY    16  10  77 W7        29.85R WCI   6
DILLON         CLOUDY    14   7  73 MISG      29.79R
W YELLOWSTONE  CLOUDY    14   9  79 CALM      29.67R
ENNIS          CLOUDY    16   9  73 NE10G20   29.82R WCI   3
TWIN BRIDGES     N/A     17   3  54 N16       29.80R WCI   2
$$

MTZ009-010-012-014-046-048-049-054-241700-
EAST SLOPES AND CENTRAL MONTANA

CITY           SKY/WX    TMP DP  RH WIND       PRES   REMARKS
CUT BANK       CLOUDY     9   6  88 N5        29.85S
GREAT FALLS    CLEAR     12   8  84 SW13      29.88R WCI  -3
MALMSTROM AFB  CLEAR      8   7  96 SW8       29.90S WCI  -5
HELENA         CLOUDY     7   3  84 CALM      29.90R
BOWMANS CRNR     N/A      6   4  91 SW8       29.84R FOG     WCI  -7
CHOTEAU          N/A     14   9  79 SW7       29.88R WCI   4
POWER            N/A      4   1  88 SW5       29.86R
RAYNESFORD       N/A      7   4  89 CALM      29.87S
ULM              N/A     11   8  86 MISG      29.90R
$$

MTZ011-013-016-021-045-047-050-051-241700-
NORTH CENTRAL MONTANA

CITY           SKY/WX    TMP DP  RH WIND       PRES   REMARKS
HAVRE          CLOUDY    17  15  92 NW7       29.93R WCI   8
LEWISTOWN      CLOUDY    16  13  88 W7        29.84R WCI   6
CHINOOK          N/A     19  14  79 W8        29.94R WCI   9
DENTON         MOCLDY    18  15  90 SW5       29.84S
FORT BENTON      N/A     12   9  85 MISG      29.93S
GEYSER           N/A     13  10  87 SW10      29.84S WCI   0
GRASS RANGE    CLOUDY    19  15  84 W13       29.82R WCI   7
JUDITH GAP     MOCLDY    13  10  89 N13       29.80R WCI  -1
ROY            MOCLDY    20  16  84 MISG      29.83S
STANFORD         N/A     11   8  90 CALM      29.83R
WINIFRED       CLOUDY    19  18  97 W10       29.85R WCI   7
$$

MTZ017>020-022>027-061-062-241700-
NORTHEAST MONTANA

CITY           SKY/WX    TMP DP  RH WIND       PRES   REMARKS
GLASGOW        CLOUDY    18  16  92 W9        29.90R WCI   7
JORDAN           N/A     21  17  84 W5        29.88R
SIDNEY         FLURRIES  20  16  84 NW6       29.92R WCI  12
WOLF POINT     CLOUDY    21  15  78 SW5       29.92S
PLENTYWOOD       N/A     16  12  86 NW9       29.88R WCI   4
SCOBEY           N/A     15   7  71 W3        29.87R
$$

MTZ028>42-056>058-241700-
SOUTHCENTRAL AND SOUTHEAST MONTANA

CITY           SKY/WX    TMP DP  RH WIND       PRES   REMARKS
BAKER          CLOUDY    19  16  88 NW10      29.85S WCI   7
BILLINGS       FLURRIES  20  17  88 NE8       29.86S WCI  10
LIVINGSTON     CLOUDY    16   9  74 NW7       29.82R WCI   6
MILES CITY     CLOUDY    21  17  84 NW7       29.90R WCI  12
BIG TIMBER     CLOUDY    19  18  93 CALM      29.85R
EKALAKA          N/A     18  14  84 N6        29.81R WCI  10
FORSYTH          N/A     21  18  86 NW3       29.90S
HARLOWTON        N/A     13   8  81 W7        29.83R WCI   3
LAUREL           N/A     21  16  81 NE6       29.85R WCI  13
$$

REGIONAL REPORTS...DAKOTAS

CITY           SKY/WX    TMP DP  RH WIND       PRES   REMARKS
WILLISTON      CLOUDY    19  14  81 W5        29.91R
MINOT          CLOUDY    23  16  74 W10       29.85S WCI  12
DICKINSON      CLOUDY    20  16  84 N12       29.83R WCI   8
BEACH          FLURRIES  18  18 100 NW9       29.89R WCI   6
CROSBY         FLURRIES  18  16  93 NW7       29.91R WCI   8
TIOGA          CLOUDY    18  18 100 NW9       29.88R WCI   6
WATFORD CITY   CLOUDY    19  16  86 NW8       29.89S WCI   9
BISMARCK       CLOUDY    25  19  78 N7        29.90R WCI  17
GRAND FORKS    CLOUDY    27  20  75 W8        29.88R WCI  19
FARGO          CLOUDY    28  22  78 N8        29.90S WCI  20
BUFFALO SD       N/A     24  20  84 NE8       29.76R WCI  15
RAPID CITY     LGT SNOW  20  17  88 NW21      29.77S VSB 1   WCI   4
$$

REGIONAL REPORTS...WYOMING/IDAHO/WASHINGTON

CITY           SKY/WX    TMP DP  RH WIND       PRES   REMARKS
GILLETTE       LGT SNOW  15  12  88 N14       29.76R VSB 1   WCI   0
SHERIDAN       LGT SNOW  21  18  88 VRB7      29.82R FOG     WCI  12
BUFFALO WY     LGT SNOW  19  15  84 N16       29.75R VSB 1   WCI   4
CODY           LGT SNOW  18  15  88 N12       29.75R FOG     WCI   5
YELLOWSTONE LA   N/A     12   7  80 VRB5      29.62R
IDAHO FALLS    LGT SNOW  22  21  96 N15       29.69R FOG     WCI   9
SALMON         CLOUDY     9   9 100 CALM      29.84R
BOISE          PTCLDY    24  19  81 W8        29.82R WCI  15
SPOKANE        FLURRIES  29  27  92 SW6       29.97R WCI  23
$$

REGIONAL REPORTS...ALBERTA

CITY           SKY/WX    TMP DP  RH WIND       PRES   REMARKS
EDMONTON       CLOUDY    18  10  73 CALM      29.89R FOG
CALGARY        MOCLDY    19  18  93 SW8       29.85R FOG     WCI   9
LETHBRIDGE     MOCLDY    14  10  85 CALM      29.89R
MEDICINE HAT   CLOUDY    18  16  93 W6        29.94R FOG     WCI   9
WATERTON GATE    N/A     16  12  86 SW6         N/A  WCI   7
CARDSTON         N/A     18  14  86 S2          N/A
MILK RIVER       N/A      7   5  92 SW2         N/A
$$

REGIONAL REPORTS...SASKATCHEWAN

CITY           SKY/WX    TMP DP  RH WIND       PRES   REMARKS
SWIFT CURRENT  LGT SNOW  10   9  92 NW13      29.87R WCI  -5
REGINA         FLURRIES  14  10  85 NW10      29.89S WCI   1
SASKATOON      FLURRIES   9   5  85 N9        29.96S WCI  -5
CYPRESS HILLS    N/A     10   7  85 CALM        N/A
VAL MARIE        N/A     16  10  79 NW12        N/A  WCI   3
ROCKGLEN         N/A     12  10  92 NW10        N/A  WCI  -1
$$




USA.gov is the U.S. government's official web portal to all federal, state and local government web resources and services.